This demonstration page uses our WeatherBlox Daily Observations layout. Learn more.

Left ArrowRight Arrow

Hourly Observations for November 26, 2022

Temp ( °F °C ) Dew Point ( °F °C ) Humidity (%) Winds ( mph kmh ) Pressure ( in mb ) Visibility ( mi km ) Precip ( " mm )
12:53 am 00:53 Partly Cloudy 30 -1.1 26 -3.3 85 85 Calm 30.18 1022 10 16 0.00 0.00
1:53 am 01:53 Clear 30 -1.1 26 -3.3 85 85 Calm 30.16 1021 10 16 0.00 0.00
2:53 am 02:53 Clear 31 -0.6 26 -3.3 82 82 Calm 30.12 1020 10 16 0.00 0.00
3:53 am 03:53 Clear 30 -1.1 26 -3.3 85 85 Calm 30.08 1019 10 16 0.00 0.00
4:53 am 04:53 Clear 33 0.6 29 -1.7 85 85 Calm 30.04 1017 10 16 0.00 0.00
5:53 am 05:53 Mostly Clear 33 0.6 29 -1.7 85 85 SE 6 9 30.05 1018 10 16 0.00 0.00
6:53 am 06:53 Mostly Cloudy 37 2.8 32 0 82 82 SE 3 6 30.03 1017 10 16 0.00 0.00
7:53 am 07:53 Cloudy 37 2.8 33 0.6 85 85 Calm 29.99 1016 10 16 0.00 0.00
8:48 am 08:48 Cloudy 39 4 34 1 81 81 Calm 30.00 1016 10 16 0.00 0.00
8:53 am 08:53 Cloudy 39 3.9 34 1.1 82 82 NW 3 6 29.98 1015 10 16 0.00 0.00
9:22 am 09:22 Mostly Cloudy 41 5 34 1.1 76 76 N 5 7 29.98 1015 10 16 0.00 0.00
9:53 am 09:53 Mostly Cloudy 42 5.6 35 1.7 76 76 N 6 9 29.95 1014 10 16 0.00 0.00
10:53 am 10:53 Cloudy 44 6.7 36 2.2 73 73 SE 5 7 29.98 1015 10 16 0.00 0.00
11:53 am 11:53 Cloudy with Light Rain 44 6.7 37 2.8 76 76 NNW 6 9 29.91 1013 10 16 0.01 0.13
12:53 pm 12:53 Cloudy with Light Rain 45 7.2 40 4.4 82 82 N 8 13 29.82 1010 8 13 0.01 0.25
1:26 pm 13:26 Cloudy with Light Rain 46 7.8 41 5 82 82 N 8 13 29.79 1009 10 16 0.01 0.25
1:53 pm 13:53 Cloudy with Light Rain 46 7.8 41 5 82 82 N 9 15 29.76 1008 10 16 0.01 0.25
2:40 pm 14:40 Cloudy 47 8.3 42 5.6 83 83 N 7 11 29.75 1008 10 16 0.01 0.13
2:53 pm 14:53 Cloudy 47 8.3 42 5.6 83 83 N 7 11 29.74 1007 10 16 0.01 0.13
3:53 pm 15:53 Cloudy 47 8.3 43 6.1 86 86 E 5 7 29.75 1008 10 16 0.01 0.13
4:16 pm 16:16 Cloudy with Rain 47 8.3 44 6.7 90 90 N 3 6 29.73 1007 3 4 0.02 0.51
4:24 pm 16:24 Cloudy with Light Rain 48 8.9 44 6.7 86 86 Calm 29.73 1007 3 5 0.03 0.76
4:44 pm 16:44 Cloudy with Light Rain 47 8.3 45 7.2 93 93 NNE 6 9 29.72 1006 3 4 0.06 1.52
4:53 pm 16:53 Cloudy with Rain 47 8.3 44 6.7 90 90 NE 9 15 29.70 1006 3 5 0.08 2.03
5:53 pm 17:53 Cloudy 46 7.8 44 6.7 93 93 NNE 10 17 29.67 1005 8 13 0.05 1.27
6:34 pm 18:34 Cloudy 46 7.8 44 6.7 93 93 NNE 8 13 29.67 1005 9 14 0.00 0.00
6:45 pm 18:45 Cloudy with Light Rain 46 7.8 43 6.1 89 89 NNE 12 19 29.67 1005 7 11 0.01 0.13
6:53 pm 18:53 Cloudy with Light Rain 46 7.8 43 6.1 89 89 NNE 9 15 29.66 1005 8 13 0.01 0.13
7:26 pm 19:26 Cloudy with Light Rain 45 7.2 43 6.1 93 93 N 10 17 29.67 1005 2 3 0.01 0.13
7:53 pm 19:53 Cloudy with Rain 45 7.2 43 6.1 93 93 N 12 19 29.65 1004 3 4 0.06 1.52
8:37 pm 20:37 Cloudy with Light Rain 45 7.2 43 6.1 93 93 N 9 15 29.65 1004 4 6 0.06 1.52
8:53 pm 20:53 Cloudy with Light Rain 45 7.2 43 6.1 93 93 N 12 19 29.63 1003 4 6 0.07 1.78
9:18 pm 21:18 Cloudy with Light Rain 45 7.2 43 6.1 93 93 N 14 22 29.65 1004 3 4 0.01 0.25
9:44 pm 21:44 Cloudy with Rain 45 7.2 43 6.1 93 93 N 8 13 29.66 1004 3 5 0.07 1.78
9:53 pm 21:53 Cloudy with Rain 45 7.2 43 6.1 93 93 N 7 11 29.64 1004 3 5 0.10 2.54
10:53 pm 22:53 Cloudy with Light Rain 44 6.7 43 6.1 96 96 N 12 19 29.62 1003 6 10 0.11 2.79
11:04 pm 23:04 Cloudy with Light Rain 44 6.7 42 5.6 93 93 NNW 9 15 29.65 1004 7 11 0.01 0.13
11:28 pm 23:28 Cloudy with Light Rain 44 6.7 42 5.6 93 93 NNW 12 19 29.65 1004 7 11 0.01 0.13
11:53 pm 23:53 Cloudy with Light Rain 44 6.7 42 5.6 93 93 NNW 13 20 29.63 1003 7 11 0.01 0.25

Powered by AerisWeather